SCP
0 0 0 0 0 0 0 0 0 0 0 1 1 3 4 4 4 4 4 3 3 4 5 7 8 8 8 7 5 3 2 3 3 2 2 1 1 1 1 1 1 1 1 1
0 0 0 0 0 0 0 0 0 0 1 1 2 3 3 4 4 4 3 3 3 3 5 6 7 7 7 7 5 3 3 3 2 2 1 1 1 1 1 1 1 1 1 1
0 0 0 0 0 0 0 0 0 1 1 2 2 2 3 4 4 3 3 2 2 3 4 5 5 5 5 5 4 3 3 2 2 2 2 2 2 2 1 1 1 1 1 1
0 0 0 0 0 0 0 0 0 1 1 1 1 2 2 3 3 3 2 2 3 3 5 6 6 5 4 3 3 3 2 2 2 2 2 2 2 2 2 1 1 1 1 1
0 0 0 0 0 0 0 0 0 1 1 1 1 1 1 2 2 2 1 3 5 6 7 7 7 6 4 3 2 2 2 2 2 3 3 3 2 2 2 2 2 1 1 1
0 0 0 0 0 0 0 0 0 0 0 0 0 1 1 2 2 2 1 4 7 9 9 8 8 6 4 3 3 2 2 2 3 3 4 3 3 3 3 3 3 3 2 2
0 0 0 0 0 0 0 0 0 0 0 0 0 1 1 2 2 2 2 5 9 10 10 9 8 6 5 4 3 2 2 2 2 3 3 3 3 3 4 4 4 4 3 2
0 0 0 0 0 0 0 0 0 0 0 0 0 1 1 1 1 2 2 6 9 11 10 9 6 5 5 5 4 3 2 2 2 3 3 3 3 3 4 4 5 5 4 3
0 0 0 0 0 0 0 0 0 0 0 0 0 1 1 1 1 2 3 5 9 11 10 7 5 4 4 4 4 3 3 3 3 3 4 4 4 4 4 4 4 5 4 4
0 0 0 0 0 0 0 0 0 0 0 0 0 1 1 1 1 2 2 4 7 9 8 6 5 4 3 3 3 2 2 3 3 3 4 4 4 4 4 4 6 8 7 4
0 0 0 0 0 0 0 0 0 0 0 0 0 1 1 1 1 2 2 2 4 6 6 5 5 4 3 2 2 2 2 3 3 4 4 4 5 5 4 4 8 12 8 4
0 0 0 0 0 0 0 0 0 0 0 0 1 1 1 1 1 2 2 2 2 3 3 4 4 3 2 2 2 2 2 3 4 5 5 5 5 4 4 4 6 8 6 4
0 0 0 0 0 0 0 0 0 0 0 0 1 1 1 1 1 1 1 2 2 2 2 2 2 2 2 2 3 3 3 4 5 6 6 5 4 4 4 3 3 3 3 4
0 0 0 0 0 0 0 0 0 0 0 0 1 1 1 1 1 1 1 1 1 1 1 2 2 2 2 2 3 4 5 5 5 5 6 5 5 4 3 3 3 3 3 4
0 0 0 0 0 0 1 0 0 0 0 0 0 0 1 1 1 1 1 1 1 1 2 2 2 2 2 2 2 3 5 6 6 6 6 6 5 4 3 3 3 3 3 3
0 0 0 0 1 1 1 1 0 0 0 0 0 0 1 1 1 1 1 1 1 1 2 2 2 3 2 2 2 2 4 5 5 6 6 6 6 4 4 3 3 3 3 3
0 0 0 0 0 0 1 1 0 0 0 0 0 1 1 1 1 1 2 2 1 1 2 2 2 3 2 2 2 2 2 3 3 4 5 5 4 4 3 3 3 3 3 3
0 0 0 0 0 0 0 0 0 0 0 0 0 1 1 1 1 2 2 2 1 1 1 2 2 2 2 2 2 2 2 2 2 2 3 3 3 3 3 3 3 3 3 3
0 0 0 0 0 0 0 0 0 0 1 1 1 1 1 1 1 1 2 2 1 1 1 1 2 2 2 2 2 2 2 2 2 2 2 2 2 2 2 2 2 2 3 3
0 0 0 0 0 0 0 0 0 0 1 1 1 1 1 1 1 1 1 1 1 1 1 1 2 3 3 2 2 1 1 1 2 2 2 2 1 1 1 2 2 3 3 3
0 0 0 0 0 0 0 0 0 0 0 0 1 1 1 1 1 1 1 1 1 1 1 1 1 2 2 2 2 1 1 1 2 2 2 2 1 1 2 2 3 3 3 3
0 0 0 0 0 0 0 0 0 0 0 0 1 1 1 1 1 1 1 1 1 1 1 1 1 1 1 2 1 1 1 1 2 2 2 2 1 1 2 3 3 2 2 2
0 0 0 0 0 0 0 0 0 0 0 0 0 1 1 1 1 1 1 1 1 1 1 1 1 1 1 1 1 1 1 1 1 2 2 2 1 1 2 2 2 2 2 2
0 0 0 0 0 0 0 0 0 0 0 0 0 0 0 0 1 1 1 1 1 1 1 1 1 1 1 1 1 1 1 1 1 1 1 1 1 1 2 2 2 2 2 2
0 0 0 0 0 0 0 0 0 0 0 0 0 0 0 0 0 0 1 1 1 1 1 1 1 1 1 1 1 1 1 1 1 1 1 1 1 1 1 1 2 2 2 2
0 0 0 0 0 0 0 0 0 0 0 0 1 1 1 0 0 0 1 1 1 1 2 1 1 1 0 0 0 1 1 2 2 1 1 1 1 1 1 1 1 1 2 2
Wind_Speed
3 4 5 8 9 6 4 3 4 6 4 1 1 3 4 1 1 2 3 4 4 4 3 4 4 5 6 6 6 6 5 5 5 4 3 3 2 2 1 1 1 2 2 2
3 5 8 5 4 4 4 3 4 5 2 2 1 2 2 1 3 3 4 4 5 4 2 3 4 5 6 7 6 6 6 5 5 4 3 2 3 2 1 1 1 1 2 2
7 6 3 5 4 4 5 6 5 4 3 2 1 3 2 2 1 1 2 3 4 6 6 5 5 5 6 6 7 6 6 5 5 4 3 3 3 2 1 1 0 0 1 1
5 5 3 4 5 6 6 6 6 4 1 2 1 2 5 2 1 1 2 3 4 4 4 5 5 5 5 6 5 5 5 4 4 5 5 5 4 2 2 1 1 0 0 1
6 3 5 6 6 7 6 4 4 3 3 1 1 3 6 1 3 4 3 4 4 5 6 5 5 5 5 5 5 5 5 5 4 5 5 5 3 2 1 1 1 1 0 0
5 3 4 5 3 5 4 3 3 4 4 2 5 5 6 4 6 4 4 5 5 5 5 4 4 4 3 4 5 5 5 4 4 5 5 5 5 4 3 2 2 1 0 0
4 3 2 2 1 1 4 5 3 3 1 6 3 3 7 5 4 6 6 5 4 5 5 5 5 4 4 4 4 5 5 4 4 4 4 4 5 5 4 3 3 2 1 1
2 5 3 2 4 4 4 8 7 5 5 4 1 5 5 2 1 2 2 3 3 4 4 5 5 5 5 5 4 5 5 4 4 4 4 3 4 3 2 3 2 2 2 2
4 5 4 2 1 6 4 4 5 6 2 1 4 3 4 2 2 1 0 1 3 4 4 4 4 4 4 5 4 5 5 4 4 4 3 3 3 3 2 2 2 1 1 1
5 3 4 2 3 3 4 6 5 5 5 4 4 3 3 3 3 2 1 2 3 3 3 4 4 4 4 4 4 4 5 4 4 3 3 3 2 2 2 2 2 2 2 1
3 3 3 2 1 2 2 3 4 4 4 6 3 5 3 6 5 4 3 2 4 5 4 4 4 4 4 4 4 5 5 4 3 3 2 2 2 2 2 2 2 2 2 2
2 4 1 4 3 2 3 3 5 4 4 4 4 6 3 1 1 2 2 2 2 3 3 3 3 3 4 4 4 4 4 4 4 3 2 2 2 2 2 2 2 1 2 2
3 4 2 4 3 3 2 1 1 4 3 3 4 5 3 3 2 1 1 1 1 2 3 2 3 3 3 3 3 3 4 4 4 3 3 2 2 2 2 2 2 2 2 2
4 3 5 6 5 1 1 1 0 4 3 3 5 5 4 3 2 2 1 0 1 1 2 3 2 3 3 3 3 3 3 3 4 4 3 3 3 3 3 2 2 2 2 2
4 2 2 2 2 1 1 2 1 2 4 5 5 4 4 3 3 2 0 1 2 1 2 2 2 2 2 2 2 3 3 3 3 3 4 4 3 2 2 2 2 2 2 3
3 3 1 2 2 1 1 3 2 2 2 2 1 3 3 1 1 1 1 2 1 1 2 2 2 2 2 2 2 2 2 2 3 3 3 2 2 2 2 3 2 2 3 3
1 3 2 2 3 1 2 3 3 2 1 3 4 4 1 1 1 2 2 1 1 1 2 2 3 3 3 3 3 3 2 2 3 2 1 2 2 2 2 2 2 2 3 2
3 3 2 1 1 3 4 1 1 3 1 1 1 1 2 2 2 1 2 2 1 1 1 2 2 2 2 2 1 2 2 2 2 2 1 1 1 2 2 2 2 2 2 2
3 4 3 2 2 3 3 2 1 1 1 1 0 0 1 2 3 2 1 0 2 2 2 2 2 2 2 1 2 3 2 2 2 2 2 2 1 1 2 2 3 2 2 2
3 3 3 2 2 3 3 5 3 2 2 2 1 1 1 2 1 3 3 2 2 1 1 1 1 2 2 2 2 3 2 2 2 3 2 2 2 2 2 3 2 2 2 3
3 2 2 2 2 3 4 6 2 2 4 3 1 1 1 1 3 3 2 2 1 1 1 2 2 2 2 2 3 2 2 3 3 2 1 2 2 2 3 2 1 2 2 2
1 1 1 1 1 4 4 2 1 3 3 2 2 1 1 1 1 1 1 2 1 1 0 1 2 1 1 2 3 2 2 2 1 1 1 2 2 2 2 1 2 2 1 2
0 2 3 3 4 3 2 1 2 1 2 2 2 1 0 1 2 3 2 2 1 1 1 1 2 1 1 2 3 3 3 1 1 1 1 2 2 2 1 2 2 1 1 2
2 1 1 1 3 3 3 3 3 3 2 2 2 1 0 1 3 3 3 2 2 1 1 1 1 2 1 1 1 2 2 2 1 1 1 2 2 2 2 1 2 2 2 2
3 1 1 2 4 4 4 4 4 4 4 3 2 1 0 0 1 2 2 3 2 1 1 1 2 2 2 2 1 2 2 2 1 1 2 2 2 2 2 2 2 2 3 4
1 1 1 3 3 2 5 5 3 3 3 3 3 4 3 1 2 2 3 3 2 2 1 1 2 2 3 2 3 3 2 2 2 2 2 1 2 2 2 2 2 2 3 4
Wind_Direction
107 104 201 210 195 189 179 194 251 268 273 82 251 284 296 298 128 167 177 182 187 194 181 161 153 145 145 146 154 160 159 156 151 158 159 155 156 149 144 158 149 165 160 157
60 241 227 197 177 175 189 217 254 285 297 155 211 288 285 236 213 204 191 189 184 167 142 138 135 139 152 157 165 162 167 162 163 165 165 158 143 136 141 129 119 150 155 163
190 233 188 165 174 185 215 202 216 231 331 20 133 313 287 275 210 178 171 180 179 178 173 164 155 156 156 165 171 167 165 157 157 145 126 109 92 78 76 59 43 355 154 156
226 242 179 183 206 179 237 220 197 202 177 274 154 252 272 241 255 222 191 178 183 180 166 164 165 162 164 174 166 150 148 146 145 138 139 140 144 154 180 165 166 73 110 143
238 211 186 209 220 180 216 203 179 188 178 250 263 188 268 243 240 241 221 196 186 176 165 166 171 172 164 164 158 153 144 145 147 145 150 151 148 146 119 112 113 103 45 132
245 235 199 211 213 179 167 77 59 61 90 236 230 184 258 228 214 220 213 204 191 171 161 158 157 144 141 147 149 146 144 150 153 154 160 162 154 145 133 137 142 141 155 281
312 301 267 175 116 58 108 100 38 352 5 242 225 187 243 245 209 200 210 205 183 164 160 155 152 151 156 147 151 145 147 152 157 160 169 168 163 159 158 160 165 164 174 216
206 283 261 195 178 184 181 149 164 199 214 255 247 220 248 267 211 186 192 173 156 156 159 161 170 169 169 160 155 152 155 156 160 166 176 168 159 159 163 166 164 181 203 212
186 254 287 276 197 145 152 179 170 146 188 212 254 264 298 -0 34 47 80 137 167 168 162 167 165 165 167 163 162 166 161 158 162 167 162 158 163 163 172 174 159 175 205 213
163 238 285 303 44 28 144 146 109 134 166 229 259 241 237 246 241 235 184 184 177 161 161 163 163 166 164 163 162 158 157 166 161 160 166 163 169 173 164 156 175 190 206 206
134 168 308 17 136 200 74 90 116 137 164 168 224 260 235 218 218 197 197 177 172 176 174 175 170 165 151 145 158 163 160 154 153 164 167 165 179 175 159 174 197 204 209 205
128 123 256 268 262 211 139 152 149 161 217 184 183 255 305 236 180 146 157 180 186 166 161 162 150 141 138 149 163 166 166 162 172 173 171 188 192 177 178 201 215 204 218 217
125 106 53 344 339 11 64 93 151 134 124 158 174 253 346 43 38 68 136 172 157 136 135 132 128 143 155 153 154 163 170 169 168 167 171 187 203 194 202 221 223 210 214 219
113 115 165 199 225 212 299 319 110 119 151 202 217 235 314 345 341 317 342 21 92 125 132 131 140 158 157 153 156 161 158 160 162 164 172 192 212 210 216 226 225 225 222 220
96 136 191 240 263 212 239 268 227 170 192 194 225 218 253 253 248 254 168 65 65 89 118 148 158 153 145 145 155 161 155 150 151 162 183 201 216 216 217 224 228 235 235 233
72 146 174 283 283 255 274 287 247 230 211 199 192 256 283 284 348 1 108 108 112 164 169 168 153 144 155 167 174 165 150 150 148 164 190 194 196 203 214 224 223 233 245 245
92 129 134 242 278 356 284 272 227 201 189 172 201 239 269 292 266 219 192 152 167 198 194 179 175 179 183 190 184 171 169 142 139 153 172 191 193 206 226 232 227 233 235 234
142 124 131 145 80 218 244 309 147 147 131 126 176 220 210 240 263 230 172 148 135 209 209 196 186 185 187 184 156 143 134 137 140 142 164 200 195 213 227 227 237 243 236 228
159 139 122 127 177 262 302 343 22 148 271 357 356 5 36 48 50 5 340 194 200 208 203 195 188 180 168 165 153 138 142 151 159 182 206 220 209 214 228 235 245 246 237 239
65 86 111 123 159 231 274 319 317 123 282 331 27 101 96 57 62 275 301 325 315 306 159 150 140 130 144 169 149 142 164 171 206 222 228 236 229 227 234 236 247 249 236 240
33 44 98 148 190 268 297 317 353 136 257 307 293 209 177 188 224 247 294 318 298 279 151 135 134 147 179 173 153 164 183 212 229 231 239 250 249 250 245 242 243 248 240 245
136 109 153 130 163 259 322 27 92 247 285 300 288 257 189 250 276 281 315 327 2 32 75 138 139 177 203 171 161 179 224 242 231 208 235 257 263 265 270 257 261 249 222 233
95 198 188 185 213 263 314 304 294 286 300 305 290 310 70 320 310 322 318 310 298 237 232 211 168 177 207 179 171 201 243 243 208 216 249 263 274 276 265 244 252 262 233 229
326 3 108 290 283 300 328 347 0 353 310 297 275 254 41 316 309 318 306 299 289 250 229 227 165 174 227 224 198 221 244 229 197 212 263 276 278 291 294 269 242 239 240 236
285 345 29 290 302 326 332 336 339 339 344 353 352 0 43 278 307 298 297 286 271 243 227 211 199 207 228 234 238 237 220 188 192 242 253 267 271 274 282 281 263 251 245 237
291 204 201 255 268 262 284 301 318 339 343 340 347 347 339 310 269 278 280 273 270 258 227 219 225 222 229 230 248 250 221 187 190 237 255 257 270 276 278 285 305 293 271 275